[[{"header":{"parameterUnit":"m.s-1","parameterCategory":1,"la1":30.2991,"la2":30.254,"lo1":-89.0895,"lo2":-89.0444,"dy":0.0017,"dx":0.0017,"nx":28,"ny":28,"refTime":"2024-06-12T03:00:00:Z","depth":0,"parameterNumber":2,"parameterNumberName":"U-component_of_WINDS"},"data":[0,0,0,0,0,0,0,0,0,0,0,0,0,0,0,0,0,0,0,0,0,0,0,0,0,0,0,0,0,0,0,0,0,0,0,0,0,0,0,0,0,0,0,0,0,0,0,0,0,0,0,0,0,0,0,0,0,0,-0.5711,-0.5711,0,-0.5674,-0.5674,-0.5674,-0.5619,-0.5618,-0.5617,-0.5616,-0.5579,-0.5579,-0.5579,0,0,0,0,0,0,0,0,0,0,0,0,0,-0.5735,-0.5734,-0.5711,-0.5711,-0.571,-0.5675,-0.5674,-0.5674,-0.5619,-0.5618,-0.5616,-0.5615,-0.5579,-0.5579,-0.5579,0,0,0,0,0,0,0,0,0,0,0,0,0,-0.5714,-0.5734,-0.5712,-0.5679,-0.5675,-0.5675,-0.5674,-0.5673,-0.5619,-0.5618,-0.5616,-0.5615,-0.5579,-0.5579,-0.5579,-0.5607,0,0,-0.5579,-0.5578,0,0,0,0,0,0,0,0,-0.5715,-0.5713,-0.5684,-0.5681,-0.5677,-0.565,-0.5669,-0.5651,-0.5619,-0.5641,-0.5616,-0.5614,-0.5604,-0.5602,-0.5598,-0.5606,-0.5604,-0.5579,-0.5578,-0.5578,-0.5578,0,0,0,0,0,0,0,-0.5717,-0.5714,-0.5697,-0.5684,-0.568,-0.5666,-0.5661,-0.5665,-0.5631,-0.5639,-0.5634,-0.5631,-0.5602,-0.5598,-0.5597,-0.5604,-0.5579,-0.5578,-0.5578,-0.5578,-0.5632,-0.5633,0,0,0,0,0,0,-0.5723,-0.5716,-0.5698,-0.5696,-0.5693,-0.5667,-0.5662,-0.566,-0.5631,-0.5625,-0.5632,-0.5628,-0.5599,-0.5597,-0.5595,-0.5626,-0.5578,-0.5578,-0.5578,-0.563,-0.5632,-0.5634,0,0,0,0,0,0,-0.5724,-0.5722,-0.5699,-0.5705,-0.5701,-0.5668,-0.5667,-0.566,-0.5656,-0.5626,-0.5619,-0.5635,-0.5598,-0.5595,-0.5604,-0.5624,-0.5578,-0.5578,-0.5629,-0.5631,-0.5633,-0.5689,0,0,0,0,0,0,-0.5724,-0.5722,-0.5733,-0.5705,-0.5701,-0.571,-0.5668,-0.566,-0.5656,-0.5651,-0.5626,-0.5621,-0.5596,-0.5605,-0.5604,-0.5623,-0.5578,-0.5627,-0.563,-0.5632,-0.5685,-0.5693,-0.5699,0,0,0,0,0,-0.5725,-0.5751,-0.5734,-0.5732,-0.5713,-0.5711,-0.5708,-0.5679,-0.5658,-0.5668,-0.5648,-0.5622,-0.5622,-0.5606,-0.5605,-0.5624,-0.5625,-0.5629,-0.5632,-0.5682,-0.5691,-0.5699,0,0,0,0,0,0,-0.5782,-0.5746,-0.5727,-0.5744,-0.5731,-0.5702,-0.5714,-0.569,-0.5683,-0.5678,-0.5642,-0.5637,-0.5651,-0.5638,-0.5622,-0.565,-0.5619,-0.5623,-0.5658,-0.5666,-0.5673,-0.5676,-0.5578,0,0,0,0,0,-0.5796,-0.5797,-0.5766,-0.5784,-0.5778,-0.5747,-0.5745,-0.5724,-0.5709,-0.5703,-0.5684,-0.567,-0.5667,-0.5666,-0.5661,-0.5682,-0.5676,-0.5695,-0.5702,-0.5708,-0.5711,-0.5721,-0.5729,-0.5645,-0.5645,-0.5645,0,0,-0.5826,-0.5807,-0.581,-0.5795,-0.5782,-0.5784,-0.5743,-0.5747,-0.5748,-0.5703,-0.5711,-0.5696,-0.5679,-0.5694,-0.57,-0.5684,-0.5733,-0.5712,-0.5717,-0.5717,-0.5725,-0.5733,-0.5741,-0.5647,-0.5647,-0.5646,0,0,-0.5882,-0.5867,-0.588,-0.5868,-0.5848,-0.5827,-0.5831,-0.5805,-0.5793,-0.58,-0.5766,-0.5767,-0.5762,-0.5751,-0.5745,-0.5794,-0.577,-0.5794,-0.5831,-0.5841,-0.5848,-0.5853,-0.5871,-0.5878,-0.5797,-0.5797,-0.5797,0,-0.5921,-0.5923,-0.589,-0.5895,-0.589,-0.5849,-0.5862,-0.5851,-0.5832,-0.5829,-0.5811,-0.5804,-0.5789,-0.5801,-0.5813,-0.5809,-0.5812,-0.5797,-0.5849,-0.5855,-0.5859,-0.5876,-0.5883,-0.58,-0.58,-0.58,-0.5799,0,-0.5972,-0.5973,-0.5986,-0.5968,-0.5963,-0.5973,-0.5941,-0.5941,-0.5919,-0.59,-0.5907,-0.5888,-0.5878,-0.5879,-0.5859,-0.5888,-0.5879,-0.5856,-0.5825,-0.5871,-0.5886,-0.5892,-0.5805,-0.5804,-0.5803,-0.5802,0,0,-0.6063,-0.6026,-0.6031,-0.6022,-0.5997,-0.5997,-0.6004,-0.5995,-0.5995,-0.5982,-0.5987,-0.5984,-0.5962,-0.5955,-0.5932,-0.5941,-0.5981,-0.5916,-0.5915,-0.5929,-0.6012,-0.603,-0.6038,-0.5964,-0.5965,-0.5966,-0.6013,0,-0.6114,-0.6124,-0.6094,-0.6112,-0.6112,-0.6073,-0.6079,-0.6064,-0.6046,-0.6044,-0.6024,-0.6022,-0.5993,-0.5989,-0.5995,-0.5975,-0.5997,-0.5971,-0.5969,-0.5969,-0.5975,-0.6045,-0.6065,-0.6111,-0.6019,-0.602,-0.6021,0,-0.6175,-0.6165,-0.6183,-0.6156,-0.6155,-0.6161,-0.6149,-0.6147,-0.613,-0.6116,-0.6107,-0.6081,-0.6086,-0.6055,-0.6061,-0.6044,-0.6041,-0.6031,-0.6032,-0.6031,-0.5998,-0.6047,-0.6124,-0.6132,-0.6029,-0.6029,-0.6028,0,-0.624,-0.6231,-0.624,-0.6233,-0.6202,-0.6207,-0.6195,-0.6176,-0.6171,-0.6161,-0.6158,-0.6148,-0.6143,-0.6136,-0.6108,-0.6088,-0.6117,-0.6084,-0.6106,-0.6107,-0.6114,-0.6114,-0.6193,-0.6112,-0.6112,-0.6112,-0.6111,0,-0.63,-0.6312,-0.6269,-0.6274,-0.6287,-0.6252,-0.6265,-0.6249,-0.6232,-0.6233,-0.6198,-0.6201,-0.6163,-0.6161,-0.6138,-0.6147,-0.6144,-0.6133,-0.6128,-0.6137,-0.6138,-0.6135,-0.6131,-0.6113,-0.6113,-0.6113,-0.6112,0,-0.6375,-0.6346,-0.6354,-0.6323,-0.6316,-0.6326,-0.63,-0.6304,-0.6283,-0.6286,-0.6285,-0.6252,-0.6248,-0.6218,-0.6208,-0.6192,-0.6209,-0.6197,-0.6215,-0.6211,-0.6235,-0.6233,-0.6314,-0.6323,-0.6236,-0.6237,-0.6238,0,-0.6416,-0.6424,-0.6394,-0.6393,-0.6382,-0.638,-0.6375,-0.6341,-0.6337,-0.6317,-0.6323,-0.6316,-0.6308,-0.6303,-0.6279,-0.627,-0.6257,-0.6286,-0.6256,-0.6265,-0.6258,-0.6258,-0.6259,-0.6293,-0.6294,-0.6295,-0.6296,0,-0.6491,-0.6476,-0.647,-0.6459,-0.6454,-0.6444,-0.6432,-0.6433,-0.6395,-0.6392,-0.6387,-0.6381,-0.637,-0.6363,-0.635,-0.6337,-0.631,-0.6306,-0.631,-0.632,-0.6331,-0.6326,-0.6233,-0.6304,-0.6303,-0.6303,-0.6302,-0.6302,-0.655,-0.6555,-0.6535,-0.653,-0.6517,-0.6506,-0.6508,-0.6487,-0.6482,-0.647,-0.645,-0.6447,-0.6428,-0.6408,-0.6397,-0.6394,-0.6379,-0.6386,-0.6387,-0.639,-0.6395,-0.6331,-0.6392,-0.6391,-0.6391,-0.6391,-0.6391,0,-0.6623,-0.6608,-0.6603,-0.6587,-0.6583,-0.6557,-0.6542,-0.654,-0.6539,-0.6523,-0.6516,-0.651,-0.6503,-0.6477,-0.6467,-0.647,-0.6458,-0.6469,-0.6469,-0.6466,-0.6409,-0.6406,-0.6479,-0.6479,-0.6479,-0.6479,-0.6479,-0.6479,-0.6661,-0.6669,-0.6652,-0.6652,-0.6637,-0.6634,-0.6627,-0.6617,-0.6604,-0.6599,-0.6593,-0.6576,-0.6556,-0.6544,-0.6537,-0.6529,-0.6527,-0.6543,-0.6531,-0.6479,-0.647,-0.6462,-0.6459,-0.6542,-0.6542,-0.6589,-0.6589,-0.6589]},{"header":{"parameterUnit":"m.s-1","parameterCategory":1,"la1":30.2991,"la2":30.254,"lo1":-89.0895,"lo2":-89.0444,"dy":0.0017,"dx":0.0017,"nx":28,"ny":28,"refTime":"2024-06-12T03:00:00:Z","depth":0,"parameterNumber":3,"parameterNumberName":"V-component_of_WINDS"},"data":[0,0,0,0,0,0,0,0,0,0,0,0,0,0,0,0,0,0,0,0,0,0,0,0,0,0,0,0,0,0,0,0,0,0,0,0,0,0,0,0,0,0,0,0,0,0,0,0,0,0,0,0,0,0,0,0,0,0,-0.7869,-0.787,0,-0.7958,-0.7959,-0.796,-0.7976,-0.7976,-0.7975,-0.7974,-0.8067,-0.807,-0.8073,0,0,0,0,0,0,0,0,0,0,0,0,0,-0.7714,-0.7717,-0.7869,-0.787,-0.7871,-0.7958,-0.7959,-0.796,-0.7976,-0.7976,-0.7975,-0.7974,-0.8066,-0.8069,-0.8073,0,0,0,0,0,0,0,0,0,0,0,0,0,-0.779,-0.7718,-0.7868,-0.7889,-0.7892,-0.7957,-0.7959,-0.796,-0.7977,-0.7975,-0.7974,-0.7973,-0.8064,-0.8069,-0.8074,-0.8125,0,0,-0.8088,-0.809,0,0,0,0,0,0,0,0,-0.7786,-0.7796,-0.7885,-0.7888,-0.7891,-0.7955,-0.7938,-0.8015,-0.7977,-0.7945,-0.7974,-0.7973,-0.803,-0.8038,-0.8057,-0.8129,-0.8133,-0.8088,-0.8091,-0.8093,-0.8095,0,0,0,0,0,0,0,-0.778,-0.7792,-0.7904,-0.7886,-0.789,-0.7895,-0.7904,-0.7953,-0.7993,-0.7947,-0.7949,-0.7959,-0.8032,-0.8052,-0.8059,-0.8134,-0.8088,-0.8093,-0.8095,-0.8097,-0.8254,-0.8256,0,0,0,0,0,0,-0.7771,-0.7787,-0.7901,-0.7907,-0.7835,-0.7899,-0.7909,-0.7935,-0.7992,-0.8,-0.796,-0.7959,-0.8045,-0.8054,-0.8063,-0.8128,-0.8093,-0.8098,-0.81,-0.8253,-0.8255,-0.8256,0,0,0,0,0,0,-0.7768,-0.7781,-0.7897,-0.7847,-0.7863,-0.7902,-0.7932,-0.7938,-0.7958,-0.8001,-0.8009,-0.7974,-0.8044,-0.8056,-0.8109,-0.8131,-0.81,-0.8104,-0.8251,-0.8253,-0.8255,-0.8257,0,0,0,0,0,0,-0.7763,-0.778,-0.7799,-0.7848,-0.7865,-0.7942,-0.7933,-0.794,-0.7966,-0.7967,-0.8016,-0.8023,-0.8044,-0.8102,-0.8114,-0.8137,-0.8108,-0.825,-0.8252,-0.8255,-0.8256,-0.8259,-0.8262,0,0,0,0,0,-0.7758,-0.7796,-0.78,-0.7814,-0.789,-0.7943,-0.7954,-0.7977,-0.7968,-0.7988,-0.8016,-0.8022,-0.8126,-0.8108,-0.8121,-0.8146,-0.8248,-0.8252,-0.8254,-0.8254,-0.8259,-0.8262,0,0,0,0,0,0,-0.775,-0.7803,-0.7808,-0.7863,-0.7899,-0.7946,-0.7973,-0.798,-0.8019,-0.8018,-0.8045,-0.8056,-0.8109,-0.8132,-0.811,-0.8199,-0.8187,-0.8193,-0.8182,-0.8187,-0.819,-0.8184,-0.8112,0,0,0,0,0,-0.7754,-0.7792,-0.7837,-0.7881,-0.7899,-0.7932,-0.7956,-0.7971,-0.8009,-0.8025,-0.8056,-0.8093,-0.8135,-0.8162,-0.8202,-0.8258,-0.827,-0.8282,-0.8285,-0.8288,-0.8293,-0.8327,-0.8333,-0.8266,-0.8266,-0.8266,0,0,-0.7764,-0.7798,-0.782,-0.7881,-0.791,-0.795,-0.7945,-0.7987,-0.8018,-0.8031,-0.8084,-0.8108,-0.8152,-0.8207,-0.8233,-0.8229,-0.8314,-0.8292,-0.8293,-0.8298,-0.8331,-0.8337,-0.8343,-0.8268,-0.8268,-0.8267,0,0,-0.7803,-0.7832,-0.7873,-0.7902,-0.7946,-0.7969,-0.7978,-0.8025,-0.8042,-0.8095,-0.8106,-0.8143,-0.8213,-0.8244,-0.8269,-0.832,-0.8328,-0.8332,-0.8351,-0.8383,-0.8388,-0.8393,-0.8414,-0.842,-0.8337,-0.8337,-0.8337,0,-0.781,-0.7871,-0.7893,-0.7935,-0.7962,-0.7975,-0.8018,-0.8045,-0.8101,-0.8119,-0.8113,-0.8202,-0.8232,-0.8296,-0.8308,-0.8327,-0.8341,-0.8328,-0.8386,-0.8391,-0.8396,-0.8416,-0.8423,-0.8337,-0.8337,-0.8337,-0.8337,0,-0.7878,-0.792,-0.7948,-0.8001,-0.8031,-0.8073,-0.8102,-0.813,-0.8141,-0.8164,-0.8219,-0.8255,-0.8304,-0.832,-0.8332,-0.8386,-0.8382,-0.838,-0.8369,-0.8402,-0.8422,-0.8429,-0.8338,-0.8338,-0.8338,-0.8338,0,0,-0.7916,-0.7981,-0.7991,-0.8016,-0.8066,-0.8099,-0.8142,-0.8189,-0.8213,-0.8251,-0.8289,-0.8348,-0.8347,-0.8375,-0.839,-0.8418,-0.8459,-0.8413,-0.8415,-0.8423,-0.8524,-0.8527,-0.8535,-0.8463,-0.8465,-0.8466,-0.8521,0,-0.7963,-0.804,-0.8062,-0.8127,-0.8167,-0.818,-0.8218,-0.8253,-0.8275,-0.8313,-0.8338,-0.838,-0.8374,-0.8392,-0.842,-0.8448,-0.848,-0.8444,-0.8501,-0.8502,-0.8492,-0.8545,-0.8548,-0.8598,-0.8528,-0.853,-0.853,0,-0.8029,-0.8068,-0.8137,-0.8183,-0.8201,-0.8234,-0.828,-0.8315,-0.8356,-0.837,-0.8402,-0.8415,-0.8461,-0.8445,-0.851,-0.8486,-0.851,-0.8527,-0.8529,-0.8538,-0.852,-0.8557,-0.8614,-0.8623,-0.8542,-0.8541,-0.854,0,-0.8052,-0.8122,-0.8173,-0.8194,-0.8248,-0.8272,-0.8295,-0.8335,-0.8362,-0.8402,-0.842,-0.8465,-0.849,-0.8524,-0.855,-0.8535,-0.8613,-0.8599,-0.8628,-0.8628,-0.8646,-0.8645,-0.8711,-0.8657,-0.8657,-0.8657,-0.8657,0,-0.8104,-0.8147,-0.8185,-0.8217,-0.8265,-0.8289,-0.8337,-0.8361,-0.8396,-0.8434,-0.8446,-0.8481,-0.8511,-0.855,-0.857,-0.8622,-0.8632,-0.8647,-0.8652,-0.8647,-0.8646,-0.8665,-0.8663,-0.8659,-0.8659,-0.8658,-0.8658,0,-0.814,-0.8167,-0.8224,-0.827,-0.8283,-0.8317,-0.8357,-0.8389,-0.8412,-0.8459,-0.8472,-0.8507,-0.8554,-0.8582,-0.8641,-0.8654,-0.8713,-0.8715,-0.8699,-0.8702,-0.8731,-0.8728,-0.8813,-0.8827,-0.8761,-0.8762,-0.8762,0,-0.8173,-0.8206,-0.8256,-0.8282,-0.8306,-0.8347,-0.8376,-0.84,-0.8429,-0.8478,-0.8505,-0.8552,-0.8592,-0.8666,-0.8698,-0.8743,-0.8748,-0.8775,-0.8756,-0.875,-0.8752,-0.8751,-0.8755,-0.8779,-0.878,-0.878,-0.8781,0,-0.8228,-0.824,-0.828,-0.8325,-0.8359,-0.8395,-0.8432,-0.8452,-0.8483,-0.8515,-0.8563,-0.8594,-0.8654,-0.8702,-0.8751,-0.8776,-0.8784,-0.8786,-0.8796,-0.8793,-0.8783,-0.8791,-0.8711,-0.8785,-0.8784,-0.8784,-0.8784,-0.8784,-0.8265,-0.8296,-0.8337,-0.8381,-0.8411,-0.8445,-0.8478,-0.8505,-0.8545,-0.8596,-0.8608,-0.8659,-0.87,-0.8765,-0.8791,-0.8832,-0.8828,-0.8841,-0.8845,-0.8849,-0.8851,-0.8774,-0.8841,-0.8841,-0.8841,-0.8841,-0.8841,0,-0.8324,-0.8351,-0.8391,-0.8442,-0.8478,-0.8481,-0.8522,-0.8552,-0.8596,-0.8633,-0.8672,-0.8728,-0.8774,-0.8809,-0.8857,-0.8883,-0.8888,-0.8895,-0.8895,-0.8901,-0.8851,-0.8839,-0.889,-0.889,-0.889,-0.889,-0.889,-0.889,-0.8359,-0.8412,-0.8429,-0.8497,-0.8524,-0.8574,-0.8597,-0.8629,-0.8659,-0.8721,-0.8759,-0.8781,-0.8818,-0.8869,-0.8912,-0.8921,-0.8939,-0.8946,-0.8956,-0.8909,-0.8904,-0.8899,-0.8888,-0.8949,-0.8949,-0.9003,-0.9004,-0.9004]}]]